Location: Philomena
(55.1756°N, 111.6233°W)
Time: 09:02:55
(UTC+00:00)

ISS - Visible Passes

Search period start: 04 December 2021 00:00
Search period end: 14 December 2021 00:00
Orbit: 417 x 423 km, 51.6° (Epoch: 04 December)

Date Brightness Start Highest point End Pass type
(mag) Time Alt. Az. Time Alt. Az. Time Alt. Az.
04 Dec -1.6 01:30:57 10° W 01:33:43 23° SSW 01:35:03 18° S visible
05 Dec -1.9 00:43:29 10° W 00:46:29 29° SSW 00:49:27 10° SE visible
05 Dec -2.1 23:56:01 10° W 23:59:08 35° SSW 00:02:16 10° SE visible
06 Dec -0.8 01:33:32 10° WSW 01:35:17 14° SW 01:37:03 10° S visible
07 Dec -1.0 00:45:38 10° WSW 00:48:02 18° SSW 00:50:25 10° SSE visible
07 Dec -1.2 23:57:56 10° W 00:00:41 23° SSW 00:03:27 10° SSE visible
10 Dec -0.5 00:00:12 10° WSW 00:01:57 13° SW 00:03:42 10° S visible
